INTELSAT 10 (IS-10)

Last updated on Fri Mar 27 2026 00:02:48 GMT+0000 (Coordinated Universal Time)

1 26766U 01019A 26085.48586476 .00000041 00000+0 00000+0 0 9990 2 26766 8.8797 60.0857 0005491 276.9920 66.9127 0.99038033 44754

Satellite not in orbit

INTELSAT 10 (IS-10)